Location: Venise Bay
(45.0825°N, 73.1481°W)
Time: 01:00:44
(UTC-05:00)

ISS - Pass Details

Date: 04 December 2021
Orbit: 413 x 423 km, 51.6° (Epoch: 20 January)

Event Time Altitude Azimuth Distance (km) Brightness Sun altitude
Rises 18:07:32 0° 298° (WNW) 2,381 0.8 -19.8°
Reaches altitude 10° 18:09:39 10° 297° (WNW) 1,512 -0.2 -20.2°
Maximum altitude 18:13:02 74° 212° (SSW) 441 -3.7 -20.8°
Enters shadow 18:13:04 74° 204° (SSW) 442 -3.7 -20.8°
